VPCOH PAFA-PAKT

Flight info

Callsign VPCOH
Flight time N/A
Altitude 39000
Route BIG ORT SSR DOOZI
Aircraft B738/M-SDE2E3FGHIRWXY/LB1

Departure

Time N/A
Airport Fairbanks International Airport (PAFA)

Arrival

Time 2026-04-25 19:56
Airport Ketchikan International Airport (PAKT)
Time Latitude Longitude Altitude Speed Heading
2026-04-25 18:59 59.08592 -136.35087 39296 ft 423 kts 150°
2026-04-25 19:00 59.01228 -136.25976 39275 ft 417 kts 150°
2026-04-25 19:01 58.93784 -136.16828 39287 ft 427 kts 150°
2026-04-25 19:01 58.88792 -136.10709 39281 ft 427 kts 150°
2026-04-25 19:02 58.81256 -136.01511 39273 ft 426 kts 150°
2026-04-25 19:03 58.75408 -135.94408 39285 ft 426 kts 151°
2026-04-25 19:03 58.68716 -135.86316 39273 ft 425 kts 151°
2026-04-25 19:04 58.61235 -135.77311 39280 ft 424 kts 151°
2026-04-25 19:05 58.51221 -135.65333 39290 ft 423 kts 151°
2026-04-25 19:06 58.46250 -135.59417 39296 ft 423 kts 151°
2026-04-25 19:06 58.38744 -135.50520 39293 ft 423 kts 151°
2026-04-25 19:07 58.31226 -135.41654 39289 ft 422 kts 151°
2026-04-25 19:08 58.23751 -135.32880 39296 ft 422 kts 151°
2026-04-25 19:09 58.15476 -135.23042 39292 ft 423 kts 148°
2026-04-25 19:10 58.06629 -135.11357 39288 ft 423 kts 148°
2026-04-25 19:10 58.01793 -135.04988 39292 ft 424 kts 148°
2026-04-25 19:11 57.96935 -134.98651 39289 ft 425 kts 148°
2026-04-25 19:11 57.92070 -134.92341 39284 ft 425 kts 148°
2026-04-25 19:12 57.87187 -134.86031 39287 ft 426 kts 148°
2026-04-25 19:12 57.82301 -134.79738 39290 ft 426 kts 148°
2026-04-25 19:13 57.77437 -134.73494 39286 ft 426 kts 148°
2026-04-25 19:13 57.72536 -134.67224 39286 ft 426 kts 148°
2026-04-25 19:14 57.68462 -134.62027 39302 ft 427 kts 148°
2026-04-25 19:14 57.63547 -134.55778 39280 ft 427 kts 148°
2026-04-25 19:15 57.57818 -134.48519 39287 ft 428 kts 148°
2026-04-25 19:15 57.53712 -134.43335 39292 ft 428 kts 148°
2026-04-25 19:16 57.48773 -134.37116 39294 ft 428 kts 148°
2026-04-25 19:16 57.43865 -134.30956 39292 ft 428 kts 148°
2026-04-25 19:17 57.38915 -134.24766 39295 ft 428 kts 148°
2026-04-25 19:17 57.33977 -134.18610 39295 ft 427 kts 148°
2026-04-25 19:18 57.29057 -134.12498 39293 ft 428 kts 148°
2026-04-25 19:18 57.24111 -134.06371 39287 ft 428 kts 148°
2026-04-25 19:19 57.19162 -134.00263 39283 ft 427 kts 148°
2026-04-25 19:19 57.14211 -133.94171 39284 ft 427 kts 148°
2026-04-25 19:20 57.09288 -133.88135 39279 ft 427 kts 148°
2026-04-25 19:20 57.04331 -133.82076 39281 ft 428 kts 148°
2026-04-25 19:21 56.99352 -133.76011 39274 ft 428 kts 148°
2026-04-25 19:21 56.91909 -133.66979 39273 ft 429 kts 148°
2026-04-25 19:22 56.86917 -133.60946 39282 ft 430 kts 148°
2026-04-25 19:23 56.79445 -133.51953 39272 ft 430 kts 148°
2026-04-25 19:23 56.71908 -133.42926 39264 ft 431 kts 148°
2026-04-25 19:24 56.66913 -133.36967 39256 ft 432 kts 148°
2026-04-25 19:25 56.56841 -133.25009 39253 ft 432 kts 148°
2026-04-25 19:25 56.51785 -133.19038 39245 ft 433 kts 148°
2026-04-25 19:26 56.46722 -133.13076 39242 ft 433 kts 148°
2026-04-25 19:26 56.41683 -133.07161 39232 ft 433 kts 148°
2026-04-25 19:27 56.39135 -133.04178 38772 ft 440 kts 148°
2026-04-25 19:27 56.37443 -133.02199 38364 ft 438 kts 148°
2026-04-25 19:27 56.34039 -132.98224 37523 ft 433 kts 148°
2026-04-25 19:27 56.31511 -132.95278 36879 ft 431 kts 148°
2026-04-25 19:28 56.28997 -132.92352 36218 ft 430 kts 148°
2026-04-25 19:28 56.26480 -132.89428 35494 ft 431 kts 148°
2026-04-25 19:28 56.23984 -132.86534 34770 ft 432 kts 149°
2026-04-25 19:28 56.21453 -132.83604 33991 ft 433 kts 149°
2026-04-25 19:29 56.18912 -132.80667 33135 ft 434 kts 149°
2026-04-25 19:29 56.16374 -132.77738 32325 ft 434 kts 149°
2026-04-25 19:29 56.13827 -132.74803 31473 ft 435 kts 149°
2026-04-25 19:29 56.11272 -132.71864 30607 ft 437 kts 149°
2026-04-25 19:30 56.08712 -132.68923 29812 ft 436 kts 149°
2026-04-25 19:30 56.06166 -132.66002 29146 ft 431 kts 149°
2026-04-25 19:30 56.03655 -132.63125 28510 ft 425 kts 149°
2026-04-25 19:30 56.01200 -132.60317 27890 ft 420 kts 149°
2026-04-25 19:31 55.98746 -132.57515 27261 ft 415 kts 149°
2026-04-25 19:31 55.96316 -132.54745 26632 ft 412 kts 149°
2026-04-25 19:31 55.93934 -132.52034 26022 ft 408 kts 149°
2026-04-25 19:31 55.91550 -132.49326 25412 ft 405 kts 149°
2026-04-25 19:32 55.89171 -132.46627 24805 ft 402 kts 148°
2026-04-25 19:32 55.86814 -132.43957 24207 ft 401 kts 148°
2026-04-25 19:32 55.84465 -132.41300 23573 ft 398 kts 148°
2026-04-25 19:32 55.82912 -132.39544 23106 ft 399 kts 148°
2026-04-25 19:33 55.79767 -132.35995 22251 ft 401 kts 148°
2026-04-25 19:33 55.77442 -132.33376 21625 ft 400 kts 148°
2026-04-25 19:33 55.75094 -132.30734 21006 ft 396 kts 148°
2026-04-25 19:33 55.72773 -132.28126 20391 ft 391 kts 148°
2026-04-25 19:34 55.70488 -132.25560 19792 ft 387 kts 148°
2026-04-25 19:34 55.68216 -132.23013 19201 ft 384 kts 148°
2026-04-25 19:34 55.65967 -132.20496 18619 ft 380 kts 148°
2026-04-25 19:34 55.63760 -132.18031 17965 ft 377 kts 148°
2026-04-25 19:35 55.61535 -132.15592 17333 ft 374 kts 149°
2026-04-25 19:35 55.59307 -132.13227 16737 ft 370 kts 150°
2026-04-25 19:35 55.57093 -132.10904 16113 ft 368 kts 150°
2026-04-25 19:35 55.54886 -132.08595 15450 ft 368 kts 150°
2026-04-25 19:36 55.52683 -132.06288 14852 ft 366 kts 150°
2026-04-25 19:36 55.50500 -132.03999 14280 ft 364 kts 149°
2026-04-25 19:36 55.48360 -132.01755 13683 ft 362 kts 149°
2026-04-25 19:36 55.46198 -131.99486 13064 ft 360 kts 149°
2026-04-25 19:37 55.44059 -131.97245 12484 ft 357 kts 149°
2026-04-25 19:37 55.41928 -131.95014 11925 ft 354 kts 149°
2026-04-25 19:37 55.39815 -131.92804 11366 ft 352 kts 149°
2026-04-25 19:37 55.37718 -131.90613 10834 ft 349 kts 149°
2026-04-25 19:38 55.35663 -131.88469 10672 ft 336 kts 149°
2026-04-25 19:38 55.33705 -131.86429 10517 ft 324 kts 149°
2026-04-25 19:38 55.31798 -131.84445 10379 ft 314 kts 149°
2026-04-25 19:38 55.29945 -131.82517 10238 ft 304 kts 149°
2026-04-25 19:39 55.28156 -131.80659 10112 ft 295 kts 149°
2026-04-25 19:39 55.26415 -131.78852 9977 ft 286 kts 149°
2026-04-25 19:39 55.24721 -131.77095 9684 ft 284 kts 148°
2026-04-25 19:39 55.23031 -131.75344 9415 ft 280 kts 149°
2026-04-25 19:40 55.21354 -131.73609 9143 ft 278 kts 149°
2026-04-25 19:40 55.19691 -131.71890 8856 ft 277 kts 149°
2026-04-25 19:40 55.18036 -131.70180 8566 ft 275 kts 149°
2026-04-25 19:40 55.16388 -131.68480 8275 ft 274 kts 149°
2026-04-25 19:41 55.14743 -131.66783 7984 ft 273 kts 149°
2026-04-25 19:41 55.13113 -131.65105 7698 ft 271 kts 149°
2026-04-25 19:41 55.11488 -131.63434 7406 ft 270 kts 149°
2026-04-25 19:41 55.10960 -131.62892 7312 ft 270 kts 149°
2026-04-25 19:42 55.08624 -131.59422 6801 ft 267 kts 116°
2026-04-25 19:42 55.08165 -131.56328 6510 ft 264 kts 88°
2026-04-25 19:42 55.08561 -131.53251 6199 ft 259 kts 62°
2026-04-25 19:42 55.09562 -131.50666 5926 ft 256 kts 47°
2026-04-25 19:43 55.10718 -131.48414 5791 ft 248 kts 45°
2026-04-25 19:43 55.11892 -131.46224 5668 ft 244 kts 45°
2026-04-25 19:43 55.13016 -131.44033 5600 ft 239 kts 46°
2026-04-25 19:43 55.14095 -131.41843 5441 ft 235 kts 47°
2026-04-25 19:44 55.15162 -131.39718 5359 ft 230 kts 45°
2026-04-25 19:44 55.16226 -131.37659 5198 ft 227 kts 46°
2026-04-25 19:44 55.17267 -131.35573 4942 ft 228 kts 46°
2026-04-25 19:44 55.18315 -131.33473 4724 ft 229 kts 50°
2026-04-25 19:45 55.18935 -131.30961 4597 ft 226 kts 81°
2026-04-25 19:45 55.18780 -131.28321 4529 ft 218 kts 107°
2026-04-25 19:45 55.18045 -131.26102 4482 ft 204 kts 128°
2026-04-25 19:45 55.17118 -131.24302 4461 ft 196 kts 132°
2026-04-25 19:46 55.16188 -131.22583 4464 ft 194 kts 132°
2026-04-25 19:46 55.15101 -131.21205 4475 ft 194 kts 159°
2026-04-25 19:46 55.13837 -131.20749 4466 ft 183 kts 181°
2026-04-25 19:46 55.12620 -131.21169 4472 ft 177 kts 205°
2026-04-25 19:47 55.11629 -131.22376 4462 ft 172 kts 230°
2026-04-25 19:47 55.11017 -131.24128 4459 ft 168 kts 254°
2026-04-25 19:47 55.10852 -131.26129 4477 ft 165 kts 276°
2026-04-25 19:47 55.11070 -131.28076 4473 ft 163 kts 293°
2026-04-25 19:48 55.11648 -131.29729 4478 ft 159 kts 316°
2026-04-25 19:48 55.12404 -131.31149 4481 ft 160 kts 314°
2026-04-25 19:48 55.13147 -131.32576 4494 ft 161 kts 314°
2026-04-25 19:48 55.13909 -131.34024 4495 ft 162 kts 314°
2026-04-25 19:49 55.14681 -131.35484 4494 ft 163 kts 314°
2026-04-25 19:49 55.14941 -131.35974 4496 ft 164 kts 314°
2026-04-25 19:49 55.16247 -131.38411 4473 ft 162 kts 316°
2026-04-25 19:49 55.17041 -131.39773 4463 ft 159 kts 317°
2026-04-25 19:50 55.18679 -131.42535 4425 ft 161 kts 317°
2026-04-25 19:50 55.19473 -131.43883 4297 ft 152 kts 318°
2026-04-25 19:50 55.20246 -131.45199 4376 ft 171 kts 317°
2026-04-25 19:51 55.21166 -131.46758 4483 ft 195 kts 318°
2026-04-25 19:51 55.22128 -131.48397 4320 ft 186 kts 318°
2026-04-25 19:51 55.23014 -131.49912 4204 ft 171 kts 317°
2026-04-25 19:51 55.23852 -131.51342 3828 ft 168 kts 318°
2026-04-25 19:52 55.24709 -131.52803 3388 ft 173 kts 318°
2026-04-25 19:52 55.25561 -131.54260 3023 ft 170 kts 318°
2026-04-25 19:52 55.26354 -131.55618 2825 ft 152 kts 318°
2026-04-25 19:52 55.27091 -131.56897 2512 ft 145 kts 319°
2026-04-25 19:53 55.27796 -131.58098 2290 ft 139 kts 319°
2026-04-25 19:53 55.28477 -131.59257 2087 ft 134 kts 317°
2026-04-25 19:53 55.29149 -131.60400 1870 ft 134 kts 316°
2026-04-25 19:53 55.29822 -131.61548 1660 ft 137 kts 317°
2026-04-25 19:54 55.30502 -131.62712 1435 ft 136 kts 316°
2026-04-25 19:54 55.31163 -131.63844 1208 ft 132 kts 318°
2026-04-25 19:54 55.31814 -131.64960 1045 ft 132 kts 318°
2026-04-25 19:54 55.32041 -131.65347 969 ft 136 kts 316°
2026-04-25 19:55 55.33159 -131.67272 594 ft 130 kts 316°
2026-04-25 19:55 55.33806 -131.68395 377 ft 131 kts 319°
2026-04-25 19:55 55.34446 -131.69478 182 ft 126 kts 319°
2026-04-25 19:55 55.35051 -131.70509 97 ft 112 kts 316°
2026-04-25 19:56 55.35497 -131.71277 98 ft 68 kts 316°
2026-04-25 19:56 55.35736 -131.71676 97 ft 36 kts 315°
2026-04-25 19:56 55.35871 -131.71915 100 ft 23 kts 315°
2026-04-25 19:56 55.35985 -131.72110 99 ft 23 kts 315°
2026-04-25 19:57 55.36070 -131.72259 97 ft 14 kts 315°
2026-04-25 19:57 55.36156 -131.72308 98 ft 14 kts 29°
2026-04-25 19:57 55.36171 -131.72164 98 ft 15 kts 128°
2026-04-25 19:57 55.36084 -131.72012 88 ft 21 kts 136°
2026-04-25 19:58 55.35996 -131.71852 83 ft 15 kts 130°
2026-04-25 19:58 55.35917 -131.71691 67 ft 15 kts 134°
2026-04-25 19:58 55.35830 -131.71533 56 ft 21 kts 134°
2026-04-25 19:58 55.35723 -131.71348 46 ft 17 kts 137°
2026-04-25 19:59 55.35649 -131.71224 39 ft 13 kts 135°
2026-04-25 19:59 55.35593 -131.71126 39 ft 7 kts 135°
2026-04-25 19:59 55.35583 -131.71066 41 ft 5 kts 63°
2026-04-25 19:59 55.35594 -131.71055 41 ft 1 kts 21°
2026-04-25 20:00 55.35610 -131.71030 40 ft 5 kts 47°
2026-04-25 20:00 55.35620 -131.71013 41 ft 5 kts 46°
2026-04-25 20:00 55.35633 -131.70988 41 ft 0 kts 46°